SCP
0 0 0 0 0 0 0 0 0 0 0 0 0 0 0 0 0 0 0 0 0 0 0 0 0 0 0 0 0 0 0 0 0 0 0 0 0 0 0 0 0 0 0 0
0 0 0 0 0 0 0 0 0 0 0 0 0 0 0 0 0 0 0 0 0 0 0 0 0 0 0 0 0 0 0 0 0 0 0 0 0 0 0 0 0 0 0 0
0 0 -0 0 0 0 0 0 0 0 0 0 0 0 0 0 0 0 0 0 0 0 0 0 0 0 0 0 0 0 0 0 0 0 0 0 0 0 0 0 0 0 0 0
0 -0 -0 0 0 0 0 0 0 0 0 0 0 0 0 0 0 0 0 0 0 0 0 0 0 0 0 0 0 0 0 0 0 0 0 0 0 0 0 0 0 0 0 0
0 -0 -0 -0 0 0 0 0 0 0 0 0 0 0 0 0 0 0 0 0 0 0 0 0 0 0 0 0 0 0 0 0 0 0 0 0 0 0 0 0 0 0 0 0
0 0 0 -0 0 0 0 0 0 0 0 0 0 0 0 0 0 0 0 0 0 0 0 0 0 0 0 0 0 0 0 0 0 0 0 0 0 0 0 0 0 0 0 0
0 0 0 0 0 0 0 0 0 0 0 0 0 0 0 0 0 0 0 0 0 0 0 0 0 0 0 0 0 0 0 0 0 0 0 0 0 0 0 0 0 0 0 0
0 0 0 0 0 0 0 0 0 0 0 0 0 0 0 0 0 0 0 0 0 0 0 0 0 0 0 0 0 0 0 0 0 0 0 0 0 0 0 0 0 0 0 0
0 0 0 0 0 0 0 0 0 0 0 0 0 0 0 0 0 0 0 0 0 0 0 0 0 0 0 0 0 0 0 0 0 0 0 0 0 0 0 0 0 0 0 0
0 0 0 0 0 0 0 0 0 0 0 0 0 0 0 0 0 0 0 0 0 -0 0 0 0 0 0 0 0 0 0 0 0 0 0 0 0 0 0 0 0 0 0 0
0 0 0 0 0 0 0 0 0 0 0 0 0 0 0 0 0 0 0 0 -0 -0 0 0 0 0 0 0 0 0 0 0 0 0 0 0 0 0 0 0 0 0 0 0
0 0 0 0 0 0 0 0 0 0 0 0 0 0 0 0 0 0 0 0 -0 -0 0 0 0 0 0 0 0 0 0 0 0 0 0 0 0 0 0 0 0 0 0 0
0 0 0 0 0 0 0 0 0 0 0 0 0 0 0 0 0 0 0 0 0 0 0 0 0 0 0 0 0 0 0 0 0 0 0 0 0 0 0 0 0 0 0 0
0 0 0 0 0 0 0 0 0 0 0 0 0 0 0 0 0 0 0 0 0 0 0 0 0 0 0 0 0 0 0 0 0 0 0 0 0 0 0 0 0 0 0 0
0 0 0 0 0 0 0 0 0 0 0 0 0 0 0 0 0 0 0 0 0 0 0 0 0 0 0 0 0 0 0 0 0 0 0 0 0 0 0 0 0 0 0 0
0 0 0 0 0 0 0 0 0 0 0 0 0 0 0 0 0 0 0 0 0 0 0 0 0 0 0 0 0 0 0 0 0 0 0 0 0 0 0 0 0 0 0 0
0 0 0 0 0 0 0 0 0 0 0 0 0 0 0 0 0 0 -0 -0 0 0 0 0 0 0 0 0 0 0 0 0 0 0 0 0 0 0 0 0 0 0 0 0
0 0 0 0 0 0 0 0 0 0 0 0 0 0 0 0 0 0 0 0 0 0 0 0 0 0 0 0 0 0 0 0 0 0 0 0 0 0 0 0 0 0 0 0
0 0 0 0 0 0 0 0 0 0 0 0 0 0 0 0 0 0 0 0 0 0 0 0 0 0 0 0 0 0 0 0 0 0 0 0 0 0 0 0 0 0 0 0
0 0 0 0 0 0 0 0 0 0 0 0 0 0 0 0 0 -0 0 0 0 0 0 0 0 0 0 0 0 0 0 0 0 0 0 0 0 0 0 0 0 0 0 0
0 0 0 0 0 0 0 0 0 0 0 0 0 0 0 0 0 -0 -0 0 0 0 0 0 0 0 0 0 0 0 0 0 0 0 0 0 0 0 0 0 0 0 0 0
0 0 0 0 0 0 0 0 0 0 0 0 0 0 0 0 0 0 0 0 0 0 0 0 -0 -0 -0 -0 0 0 0 0 0 0 0 0 0 0 0 0 0 0 0 0
0 0 0 0 0 0 0 0 0 0 0 0 0 0 0 0 0 0 0 0 0 0 0 0 -0 -0 -0 -0 -0 -0 -0 0 0 0 0 0 0 0 0 0 0 0 0 0
0 0 0 0 0 0 0 0 0 0 0 -0 0 0 0 0 0 0 0 0 0 0 0 0 -0 -0 -0 -0 -0 -0 -0 0 0 0 0 0 0 0 0 0 0 0 0 0
0 0 0 0 0 0 0 0 0 0 -0 -0 0 0 0 0 0 0 0 0 0 0 0 0 -0 -0 -0 -0 -0 -0 -0 -0 0 0 0 0 0 0 0 0 0 0 0 0
0 0 0 0 0 0 0 0 0 0 0 0 0 0 0 0 0 0 0 0 -0 0 0 0 0 0 0 0 0 0 -0 -0 0 0 0 0 0 0 0 0 0 0 0 0
Wind_Speed
4 4 8 10 10 5 5 5 4 5 4 5 8 10 10 7 5 6 7 7 8 9 8 6 7 7 7 7 7 7 6 5 4 3 2 2 1 1 1 2 3 3 2 2
3 8 8 5 6 5 4 4 4 3 1 3 5 9 9 8 7 8 9 10 10 8 5 5 6 6 7 8 8 7 7 6 5 3 3 2 2 1 2 2 2 2 2 2
8 5 6 7 6 8 8 7 5 3 2 2 1 7 7 6 5 5 6 8 8 10 9 8 7 7 7 8 9 8 7 6 5 4 2 2 1 1 0 1 2 2 2 3
5 4 5 7 7 7 8 6 6 4 2 3 2 5 7 5 5 6 6 7 8 8 8 8 9 8 9 8 7 7 6 6 5 5 4 4 3 2 3 2 2 2 2 3
5 3 5 7 7 8 5 3 4 4 4 2 2 3 8 3 5 7 6 7 7 7 8 9 9 9 8 7 7 6 6 5 4 4 5 4 2 2 1 1 2 2 2 3
4 2 4 5 3 5 4 4 4 3 3 5 8 6 8 5 7 6 5 4 5 6 6 7 6 6 6 5 5 5 5 4 4 4 4 4 3 2 1 2 2 2 2 2
2 2 2 3 3 2 5 6 2 0 2 8 5 6 9 7 6 6 6 4 3 4 6 6 6 6 6 6 5 5 5 4 3 3 3 3 3 3 3 3 3 3 2 2
4 4 4 3 5 6 6 8 7 7 7 4 3 8 7 5 3 2 3 4 4 3 4 5 6 6 6 6 5 5 5 4 3 3 2 2 2 2 2 3 3 3 3 3
5 4 2 2 2 7 6 5 4 4 2 2 5 4 5 2 3 3 4 5 4 3 3 4 4 5 5 5 5 5 5 4 3 3 2 1 1 1 2 2 2 2 2 2
4 2 2 1 2 1 4 6 4 5 6 5 4 4 4 2 2 2 3 3 3 3 3 3 3 3 3 3 3 3 4 4 3 2 2 1 1 1 1 1 2 2 3 2
3 3 1 0 3 5 3 3 4 3 4 5 4 5 3 4 4 4 3 3 4 4 3 3 3 3 3 3 3 3 2 2 2 1 1 1 1 1 1 1 2 2 2 2
3 4 1 3 3 2 3 4 6 5 4 4 3 5 3 2 3 5 4 3 4 4 4 4 4 4 4 4 3 3 2 2 1 1 1 1 0 0 0 1 2 1 1 2
4 5 3 2 3 1 1 2 3 3 3 3 4 5 3 3 4 4 4 4 4 4 4 4 4 4 4 3 3 2 2 1 1 1 1 1 1 0 1 1 1 1 1 2
4 4 5 8 6 4 3 3 3 3 4 4 6 5 2 1 3 3 3 3 4 4 4 4 4 3 3 3 2 2 2 1 1 1 1 1 0 1 1 1 1 1 1 1
3 3 3 3 3 3 3 4 5 6 6 6 6 6 5 4 4 4 4 4 4 4 3 3 3 2 3 3 3 3 3 2 2 2 1 1 1 1 1 1 1 1 1 2
2 2 2 1 2 2 3 4 5 5 5 5 4 5 3 1 2 4 4 5 5 3 3 3 3 3 3 2 3 3 3 2 2 2 1 2 2 1 1 1 1 2 1 2
1 2 2 1 1 2 3 4 4 4 4 5 6 5 4 3 4 4 4 4 4 4 3 2 2 2 1 2 2 2 2 2 2 2 2 2 2 2 2 2 2 2 2 2
3 2 2 2 2 3 4 2 2 3 2 2 2 3 4 4 3 2 3 4 3 3 3 2 1 1 1 2 2 2 3 2 3 3 3 2 2 2 2 2 2 2 2 2
3 4 2 2 2 3 3 2 0 1 1 1 4 4 4 5 5 3 2 2 3 3 3 2 1 1 1 2 2 2 3 3 3 3 3 3 2 2 2 2 3 2 2 2
3 3 3 2 2 4 3 4 2 2 1 2 2 4 5 5 3 1 1 3 4 3 2 2 2 3 3 2 2 2 2 2 2 2 2 2 2 2 3 3 3 2 2 2
2 2 2 2 2 4 4 5 2 3 4 1 1 3 3 2 2 3 2 2 3 3 3 3 3 3 2 2 2 3 3 3 3 3 2 2 2 2 3 2 2 2 2 2
3 3 2 3 2 5 4 2 2 2 1 1 1 2 3 3 3 3 2 2 2 2 2 2 2 2 2 2 2 2 3 4 3 2 2 3 3 3 2 2 2 2 1 2
1 3 3 4 3 2 2 1 1 0 1 1 1 1 3 3 2 2 1 1 1 1 1 1 1 2 2 2 1 1 3 3 3 2 2 3 3 3 2 2 2 2 1 1
2 1 1 1 1 2 3 3 3 3 2 2 2 2 3 3 2 1 1 1 1 1 1 1 1 2 2 2 2 2 3 3 2 2 3 3 3 3 3 2 2 1 1 1
3 2 1 0 2 2 4 4 3 4 4 4 4 3 2 3 1 1 1 1 1 1 1 1 1 2 2 3 3 3 3 2 2 2 3 3 3 3 3 3 2 2 2 2
2 1 1 2 2 1 2 3 3 3 3 3 3 3 2 1 1 0 0 0 0 0 1 1 1 2 2 3 3 3 3 2 2 2 3 2 2 2 2 2 3 4 4 5
Wind_Direction
157 153 200 202 199 191 169 176 212 230 217 185 220 241 253 255 230 220 213 209 207 212 212 188 178 168 159 158 159 161 155 160 148 141 148 156 191 213 217 211 205 197 198 199
143 221 214 188 200 212 211 216 231 271 249 203 234 254 257 247 229 213 208 209 208 210 197 180 171 163 163 167 169 167 166 166 168 169 170 169 176 202 222 218 215 205 198 205
192 215 180 186 201 209 222 212 210 217 343 347 286 283 261 258 236 226 214 204 200 197 192 185 178 177 170 170 172 172 172 169 166 155 129 92 70 47 342 253 247 232 215 214
224 232 181 187 204 190 228 213 200 197 168 256 182 265 271 246 249 233 225 210 203 198 188 182 178 178 178 179 172 167 167 164 160 155 157 163 176 204 223 229 240 256 236 224
220 196 178 198 206 182 207 185 184 191 179 240 219 224 275 257 238 240 231 217 206 192 178 178 179 177 174 169 165 162 158 157 160 164 167 170 191 216 231 235 240 253 252 235
226 225 194 195 177 171 146 86 69 59 103 239 215 195 263 232 224 231 234 220 199 175 167 167 163 152 150 152 150 150 150 159 160 161 167 171 183 199 214 239 237 249 253 244
250 254 216 156 128 142 132 116 106 250 222 241 204 199 244 246 230 210 207 195 173 157 151 146 144 143 146 148 149 149 151 156 162 161 171 181 189 198 211 224 228 236 243 248
167 226 214 190 171 172 178 159 168 186 206 248 204 220 245 270 248 185 163 141 118 113 133 142 152 152 153 154 152 153 157 161 164 165 181 185 188 203 226 230 226 229 233 239
166 227 274 219 167 145 155 187 170 141 159 216 238 257 300 349 44 80 100 100 110 111 115 129 133 140 149 154 158 159 158 158 163 165 166 177 201 217 230 244 234 237 243 247
147 185 272 280 85 71 157 147 133 156 170 218 249 238 234 240 204 134 118 115 104 94 86 96 107 117 134 144 142 141 148 154 159 155 170 177 213 229 229 234 251 248 249 250
134 143 300 62 182 178 149 160 160 162 176 173 211 254 229 201 185 160 150 137 119 108 96 88 81 85 98 94 98 105 118 123 132 149 160 157 214 231 228 246 258 253 255 256
140 124 191 256 282 237 184 179 158 170 211 192 180 260 315 186 151 138 133 115 108 102 91 85 79 72 72 73 73 75 88 106 131 147 141 147 114 33 263 270 275 272 277 273
141 127 108 349 328 331 196 191 173 152 144 172 178 247 347 76 100 118 126 118 106 97 86 79 73 70 67 65 64 65 67 76 65 96 116 103 62 36 312 298 303 299 290 293
119 135 169 190 207 186 207 217 191 167 185 202 216 220 258 136 131 132 130 123 112 102 95 84 72 66 63 58 58 56 42 45 51 68 84 72 339 308 294 301 309 312 305 305
100 153 192 230 232 194 221 226 211 211 205 200 219 219 228 213 184 158 145 130 115 105 92 89 79 62 51 41 33 37 31 21 29 53 47 354 326 336 340 333 325 323 315 308
68 137 146 259 239 213 257 251 230 228 216 209 213 253 245 185 129 131 136 134 129 119 109 95 79 64 49 39 28 24 18 5 24 45 18 353 350 351 341 325 327 333 324 315
89 116 125 218 255 56 276 247 222 215 216 196 217 228 157 141 148 158 156 141 140 135 118 107 100 88 55 27 26 13 3 7 26 25 12 4 349 341 323 320 337 326 311 308
152 137 142 156 103 207 243 282 198 186 240 189 153 140 141 136 114 93 122 132 134 130 118 111 105 73 31 22 19 15 15 23 29 17 10 6 356 341 330 325 319 309 300 303
166 148 133 139 169 265 298 323 13 146 320 60 137 125 115 109 82 41 38 89 120 123 118 116 111 99 59 35 27 40 26 23 23 8 359 352 349 339 333 324 311 307 309 308
81 110 122 131 159 224 260 300 305 102 297 341 121 138 143 127 123 218 56 72 79 79 75 72 58 54 42 14 35 51 25 20 1 337 328 327 331 326 315 304 301 304 305 303
77 86 137 160 208 262 286 301 2 140 235 310 96 137 141 160 173 156 122 84 83 76 64 60 62 52 28 18 44 38 13 346 320 323 330 335 328 316 304 305 308 312 319 323
159 149 170 156 193 256 315 31 121 223 294 38 83 118 115 116 114 119 114 100 82 64 54 54 52 29 12 23 42 21 343 320 323 334 340 337 329 322 325 319 311 313 318 327
164 188 184 184 206 272 353 45 325 1 66 27 73 94 113 115 119 108 107 108 90 77 56 54 60 17 1 4 29 338 309 317 330 339 332 327 328 326 320 311 308 313 318 315
338 344 125 122 327 339 2 9 12 30 50 52 83 101 111 117 115 83 92 78 68 54 49 38 40 11 343 343 353 324 313 324 335 326 319 320 323 326 331 326 322 311 303 300
312 349 44 14 305 352 5 4 9 33 49 54 50 57 85 108 106 89 80 62 43 9 4 27 6 328 318 325 331 329 322 329 328 316 313 319 320 317 322 325 320 313 289 283
334 303 224 242 267 262 300 340 16 41 30 35 41 28 27 87 115 70 57 337 334 339 334 336 325 315 313 320 319 319 317 311 303 309 308 305 308 307 312 319 325 333 325 326